Weather in Krasnyy Uzel

Russia / Republic of Mordovia     54°26′10″N   45°14′33″E
temp.,
°C
wind,
m/s
gust,
m/s
humid.,
%
clouds,
%
prec.,
mm/h
press.,
hPa
HPBL,
m
14 august, sun
sun1400:00+18ene2277100 0.0 102118
03:00+17ene2282100 0.0 102215
06:00+17ene2576100 0.0 1022141
09:00+22ene4555100 0.0 1022574
12:00+26e4541100 0.0 10211486
15:00+27ene443792 0.0 10211822
18:00+24e3650100 0.0 1020190
21:00+19e4959100 0.0 1021180
15 august, mon
mon1500:00+16e385485 0.0 1022131
03:00+15e366292 0.0 1022109
06:00+16ese276299 0.0 1023182
09:00+22ese464352 0.0 1023609
12:00+25e56398 0.0 10231380
15:00+26e56386 0.0 10221880
18:00+24ese354845 0.0 1022211
21:00+19ese35653 0.0 102375
16 august, tue
tue1600:00+17e22725 0.0 102411
03:00+16ene22785 0.0 102416
06:00+17ene25806 0.0 1024149
09:00+23e565217 0.0 1024814
12:00+26e564156 0.0 10241747
15:00+27e55355 0.0 10221999
18:00+25e47455 0.0 1022291
21:00+19e49593 0.0 1023138
17 august, wed
wed1700:00+17e49625 0.0 1022159
03:00+16e35715 0.0 102272
06:00+17e26695 0.0 1022146
09:00+24ese454498 0.0 1021538
12:00+27ese553499 0.0 10201708
15:00+28e553256 0.0 10202131
18:00+25e36430 0.0 1019211
21:00+19e48560 0.0 1020130
18 august, thu
thu1800:00+17e39580 0.0 1020152
03:00+15e3106628 0.0 1020164
06:00+16ene4116813 0.0 1021239
09:00+23e61045100 0.0 1021613
12:00+27e7934100 0.0 10201683
15:00+28e783196 0.0 10201803
18:00+25e61040100 0.0 1021554
21:00+21e61356100 0.0 1022351